sat.trackr.live / text

‹ back to catalog

STARLINK-35189

NORAD 65676 · 2025-212A

PAYLOAD ACTIVE UNKNOWN

§ Identity

Operator
Country
US
Launch date
2025-09-21
Launch site
AFETR
Launch vehicle
Mass (kg)
RCS (m²)

Purposes: comms

External: N2YO · Heavens-Above · Gunter

§ Orbital elements

Epoch: 2026-09-20T23:18:15.444576Z

Period
94.01 min
Inclination
53.1589°
Eccentricity
0.0001398
Mean motion
15.31715246 rev/d
Perigee alt
469.7 km
Apogee alt
471.7 km
Semi-major
6,848.8 km
B*
6.7827e-4
RAAN
157.7882°
Arg perigee
88.9809°
Mean anomaly
271.1352°
Rev number
5,710

§ Raw data

STARLINK-351891 65676U 25212A   26263.97101209  .00020751  00000+0  67827-3 0  99972 65676  53.1589 157.7882 0001398  88.9809 271.1352 15.31715246 57103

JSON: /api/v1/satellites/65676 · /tle

For live sub-satellite position, see the globe view (requires WebGL).

§ Visibility from observer

Set your observer location to see the next 7 days of passes ≥ 10°. The values pass through the URL so the page stays shareable.

No JS? Fill the form by hand. The geolocation button needs JavaScript.